Theta_e
335 334 332 330 326 324 324 321 319 317 318 319 320 321 322 323 323 321 319 317 316 313 312 315 312 310 310 310 311 311 313 316 314 315 317 318 316 316 316 315 315 313 312
332 332 330 330 328 327 324 322 324 325 324 324 323 323 323 322 321 317 312 308 307 307 307 308 308 306 306 307 308 308 310 312 312 309 309 308 308 308 308 308 308 308 308
329 329 330 328 327 326 325 324 323 322 322 322 320 319 320 319 315 311 310 309 308 309 308 308 308 308 307 307 306 308 308 308 309 307 308 307 306 306 306 306 306 306 306
327 326 325 325 324 322 319 317 316 315 316 317 316 314 315 316 315 313 311 309 307 306 309 309 309 309 307 307 307 307 307 307 307 307 307 307 306 306 306 306 307 306 306
325 325 324 323 321 318 316 314 312 310 309 312 313 313 312 312 312 314 311 309 307 304 303 307 308 309 309 307 308 307 307 307 307 307 307 306 306 306 306 306 306 306 306
326 325 322 320 317 316 315 313 310 308 308 309 310 310 310 311 310 310 309 307 304 302 302 304 308 308 308 308 308 308 308 308 307 307 307 306 306 306 306 306 306 306 304
325 323 321 319 316 315 313 312 309 306 307 308 309 309 309 308 308 309 307 304 304 303 302 303 306 305 306 308 308 308 307 307 307 307 308 308 307 307 307 307 307 307 306
324 322 320 317 315 314 314 311 308 306 306 307 307 306 308 308 309 307 307 306 304 304 304 304 304 305 306 306 306 306 306 306 308 308 308 307 308 308 307 307 307 307 306
319 317 316 316 316 316 315 313 310 308 307 306 305 305 304 305 307 310 307 306 306 305 304 304 304 304 305 305 306 306 305 306 308 308 308 307 307 307 308 308 307 307 306
317 317 317 318 319 318 317 314 313 311 309 305 304 305 305 304 304 307 310 307 306 306 307 307 305 305 305 305 305 305 305 306 307 307 308 307 307 308 308 307 308 308 307
322 320 320 320 319 317 315 314 313 311 310 310 308 307 307 307 306 305 305 307 309 306 308 307 306 306 306 305 305 305 306 307 307 307 307 307 307 307 308 308 308 308 308
320 320 319 318 318 316 314 313 313 312 311 311 311 308 308 308 307 307 306 306 306 306 306 306 307 306 306 305 305 306 307 307 307 307 306 306 307 307 307 307 307 307 307
320 319 318 318 316 314 314 313 312 312 312 312 312 311 310 308 308 307 307 307 306 306 305 306 306 306 306 306 305 305 307 307 307 307 306 306 306 307 307 307 307 306 306
319 319 318 317 316 315 314 315 313 312 312 311 312 313 313 309 307 305 305 306 305 304 305 306 306 305 305 305 306 305 306 306 307 307 306 306 306 306 307 307 306 305 305
319 318 317 315 314 314 314 313 311 311 309 310 310 309 310 309 306 304 305 305 304 305 306 306 305 305 304 305 304 304 305 306 306 306 306 306 307 307 307 307 307 304 304
318 316 316 315 313 312 310 307 306 306 305 306 306 305 304 303 303 303 305 305 305 306 305 304 304 304 304 304 304 304 305 306 306 305 306 306 307 307 307 306 307 305 304
317 317 316 315 311 309 308 308 307 306 305 307 306 305 305 304 305 305 305 305 305 305 304 304 304 304 304 304 303 303 305 305 305 305 306 306 307 306 307 307 307 307 305
319 315 315 316 313 312 312 312 310 309 307 306 307 305 305 304 304 306 305 305 304 304 304 304 304 304 304 303 303 304 305 304 304 304 304 305 305 305 306 307 308 307 306
318 313 313 313 313 312 312 311 311 311 309 310 309 307 305 305 304 305 305 304 304 303 304 304 304 304 304 303 303 303 303 302 302 302 303 304 305 305 306 307 308 308 307
313 314 313 312 310 311 311 311 311 311 311 312 311 306 304 306 305 305 305 305 304 304 304 304 304 304 303 303 303 303 302 301 301 302 302 304 305 305 305 306 307 308 308
314 314 313 313 313 312 311 312 311 311 312 309 304 304 305 305 304 304 303 303 304 304 304 305 304 303 302 302 303 302 301 300 300 301 302 304 304 304 304 305 305 307 307
314 313 312 311 311 312 311 308 308 309 307 304 304 304 304 304 304 304 304 304 304 304 303 303 303 303 303 302 301 300 298 298 299 301 302 303 303 304 303 304 305 305 305
314 312 310 311 311 310 307 306 306 307 306 305 305 305 304 305 304 304 304 304 304 304 303 303 303 302 301 301 299 295 295 296 299 301 302 302 302 303 302 303 304 305 304
312 311 312 311 309 306 305 305 305 305 305 306 305 305 305 305 305 305 304 304 304 303 303 302 301 300 299 295 294 295 296 298 299 301 301 302 302 302 301 302 303 303 303
312 311 310 307 307 308 308 306 303 304 305 305 305 305 305 305 305 304 304 304 303 303 302 301 300 299 297 296 295 296 297 299 300 301 302 302 300 300 301 301 300 301 302
312 311 310 308 308 307 307 306 305 303 305 304 304 304 304 304 304 304 304 303 303 302 301 300 299 298 298 295 295 296 298 299 299 299 300 300 299 300 300 300 300 300 300
Wind_Speed
18 21 23 24 26 28 26 25 24 24 24 24 23 21 20 18 17 19 20 19 19 18 18 19 19 18 19 18 17 18 12 6 3 8 9 11 13 13 12 12 12 12 12
22 24 26 25 23 24 23 25 21 19 18 17 17 16 15 16 17 15 19 21 22 23 22 20 20 21 23 20 18 19 22 16 11 16 23 21 18 16 14 13 12 12 11
20 21 21 24 24 24 21 20 18 19 19 17 18 19 17 17 17 19 22 21 20 18 18 19 20 19 21 22 23 21 20 20 20 20 15 14 18 19 16 17 15 13 11
20 22 24 21 21 22 21 19 18 18 18 18 19 22 22 17 15 17 18 18 17 16 13 13 14 15 16 19 21 21 20 20 19 18 16 16 16 17 17 20 22 20 13
24 24 23 21 22 21 19 16 15 16 17 19 21 22 21 20 16 13 18 14 13 13 13 13 14 12 10 11 14 17 18 19 18 17 16 15 16 18 19 17 17 19 12
22 22 23 24 23 20 16 15 14 15 18 17 19 19 20 18 16 16 15 13 13 13 14 14 16 17 16 11 9 10 12 13 15 15 13 11 13 14 15 16 17 11 7
21 21 22 22 22 19 16 13 14 17 17 18 18 18 19 17 12 13 14 15 16 15 16 15 14 15 12 13 11 9 9 10 10 12 12 9 9 11 13 16 16 17 14
21 22 22 21 20 16 14 14 14 15 14 14 15 14 15 13 6 7 7 10 13 13 14 16 17 16 14 13 13 13 12 12 13 12 10 10 9 10 10 11 13 16 17
21 22 21 20 17 15 14 14 14 13 11 10 11 11 11 10 9 4 7 7 9 12 10 10 12 12 12 12 11 11 10 9 10 9 10 10 11 14 11 14 17 16 11
20 19 18 17 14 11 12 12 12 10 10 9 11 10 10 11 9 7 9 6 7 4 5 6 7 10 8 7 8 9 9 12 13 9 11 14 13 12 14 13 13 11 8
18 17 15 12 13 11 11 10 9 9 8 7 7 6 6 6 8 7 7 5 1 7 4 9 7 8 8 7 6 7 9 11 12 11 12 14 16 16 17 16 12 11 10
18 17 16 13 10 9 8 6 7 8 6 6 6 5 3 2 2 3 4 6 5 3 4 6 9 10 5 9 8 7 8 10 11 13 15 17 15 18 18 15 14 12 11
18 18 16 13 11 10 9 7 6 8 9 10 12 11 9 4 3 2 2 1 2 3 5 7 6 4 5 7 6 8 10 14 14 14 15 17 16 15 16 15 14 15 10
18 19 17 13 12 9 10 8 6 7 9 2 2 5 10 8 6 3 3 3 3 3 2 4 7 7 6 2 2 8 10 13 13 12 14 11 15 18 18 16 16 16 14
17 21 19 17 13 10 11 11 8 8 6 7 7 3 8 7 7 5 4 1 1 2 4 2 4 8 10 8 9 10 10 10 13 14 14 15 16 17 19 17 13 16 13
18 19 19 18 14 13 11 12 9 8 6 6 6 5 5 3 2 0 3 2 2 4 2 2 3 6 7 6 7 7 9 10 10 12 14 16 16 18 15 17 13 14 15
19 15 18 15 15 13 11 10 11 7 6 6 5 5 5 7 5 6 4 4 5 3 2 3 3 3 3 4 6 6 9 11 12 11 12 15 17 20 18 16 16 13 14
17 12 16 18 16 12 11 10 7 9 10 9 8 5 3 5 5 3 3 2 3 2 4 2 4 3 3 5 9 10 6 8 10 11 12 13 16 18 22 21 16 13 10
16 16 14 14 15 13 11 7 6 11 10 10 9 9 7 4 3 2 1 2 2 2 2 5 5 3 5 4 6 6 6 9 10 10 9 12 15 19 21 22 18 14 11
17 12 17 12 11 10 7 11 8 8 10 11 8 7 4 8 7 7 7 6 6 1 3 10 3 7 4 4 3 4 8 10 10 10 9 11 14 16 18 19 17 16 14
16 15 13 10 8 9 5 7 9 10 14 12 8 9 7 7 7 6 5 6 4 1 7 10 11 6 5 4 3 3 7 8 9 8 8 10 13 16 18 19 16 16 15
15 15 14 10 8 9 6 8 10 17 16 13 12 10 7 6 8 7 4 4 3 4 8 7 6 1 1 2 3 6 8 6 7 7 7 10 12 15 17 17 11 11 12
16 11 12 10 9 13 12 9 15 16 15 13 11 9 6 7 10 8 6 6 6 5 5 3 1 4 3 5 7 6 7 5 6 8 9 12 12 14 19 16 13 12 14
7 2 15 13 14 12 12 12 11 15 15 13 11 9 11 8 7 8 6 5 8 5 6 2 1 2 5 7 6 6 7 5 6 8 10 11 12 13 15 12 11 12 11
9 2 19 17 17 14 11 12 9 13 16 13 12 8 9 9 10 8 7 7 8 7 7 2 1 2 6 5 5 6 6 8 10 11 8 9 10 14 11 11 12 17 9
9 8 17 19 12 13 13 13 14 14 18 16 12 10 11 11 12 10 10 8 9 7 8 4 1 1 6 5 5 5 5 6 8 9 11 10 11 12 14 11 11 16 16
Wind_Direction
96 98 99 103 104 104 102 102 102 101 99 97 93 93 92 88 86 86 83 77 72 67 67 71 70 62 62 59 60 56 52 50 42 28 31 30 29 29 30 29 27 24 28
106 108 109 108 107 105 103 106 101 98 100 94 93 95 92 92 97 85 83 80 76 72 70 71 65 63 59 55 55 57 62 69 89 74 71 63 56 42 41 41 27 22 22
111 112 114 112 111 108 106 103 106 101 100 103 101 95 100 101 97 95 91 84 77 72 70 69 66 65 61 56 56 64 71 73 76 75 65 56 47 33 27 24 17 4 1
116 113 109 113 115 108 108 105 103 100 100 102 103 98 96 99 101 100 97 88 76 66 67 67 62 58 64 63 60 58 61 68 66 64 56 46 33 25 29 16 11 11 7
124 120 119 120 120 116 110 104 99 92 93 99 100 96 91 87 82 102 107 93 75 64 66 65 59 56 69 73 58 53 53 56 56 51 44 37 31 24 18 12 7 8 12
139 134 129 123 119 116 114 106 101 104 108 103 94 89 87 83 82 94 99 87 74 62 60 69 73 69 69 73 71 58 48 42 43 40 31 22 18 10 12 15 13 358 340
142 133 131 132 131 127 119 106 102 105 103 96 94 89 81 76 80 86 87 82 69 63 61 67 69 61 63 78 76 61 47 41 31 28 19 5 356 359 2 8 3 356 345
139 142 143 140 130 124 119 113 115 118 114 104 97 89 81 63 76 109 101 95 76 76 72 66 60 58 60 62 56 53 50 36 36 27 24 20 7 356 346 354 354 354 356
143 143 141 138 137 139 138 140 127 123 119 115 102 93 92 83 60 133 167 140 97 84 74 62 51 48 45 47 51 44 33 30 33 42 35 29 26 16 358 348 351 347 345
145 146 147 145 143 147 153 148 146 134 120 112 105 95 84 84 78 78 201 178 166 114 69 28 26 33 16 15 18 18 22 14 16 19 27 29 29 20 17 3 352 340 344
150 147 148 149 154 150 150 156 149 140 130 127 133 122 90 79 71 77 97 102 155 229 301 317 350 358 351 7 360 8 11 10 25 27 21 23 21 15 14 16 12 2 344
145 142 146 157 156 156 161 141 160 170 170 199 206 196 174 167 105 59 47 69 82 102 25 356 10 355 61 70 58 34 14 24 18 23 22 19 11 12 13 13 19 14 19
153 158 163 158 152 145 149 163 187 208 211 233 232 223 216 223 228 248 263 288 4 4 350 16 25 30 101 95 47 34 33 24 22 27 19 20 20 14 13 20 21 14 12
168 172 165 163 163 174 176 173 143 135 165 161 171 216 218 217 213 291 286 270 286 301 314 84 80 76 46 31 29 45 37 28 21 17 12 8 13 21 23 21 18 13 8
167 174 168 159 164 161 154 164 164 162 163 157 159 176 231 237 286 294 299 313 69 76 106 115 57 58 59 44 34 27 23 26 25 22 21 16 10 9 14 14 14 18 17
160 165 170 169 166 162 162 154 154 141 130 130 113 76 71 7 318 268 130 96 64 117 95 42 60 63 57 45 20 14 19 28 26 30 27 22 19 11 360 7 11 13 9
175 178 181 185 177 157 167 178 173 174 154 147 135 110 72 54 82 105 106 103 74 101 115 36 90 38 62 34 10 7 26 36 42 40 30 27 20 18 18 11 13 354 357
183 176 181 188 190 186 197 218 206 194 186 186 190 189 147 88 99 95 73 109 128 103 100 42 339 18 86 55 50 39 49 31 24 21 25 24 19 14 14 12 10 356 330
178 165 174 186 189 196 206 219 199 208 203 199 194 215 221 204 184 164 64 30 23 158 318 326 351 177 134 88 76 46 33 20 20 21 20 20 17 18 18 11 10 2 335
159 161 170 173 179 188 216 219 238 242 236 208 214 253 225 224 240 231 239 266 238 296 332 307 298 142 98 70 90 51 16 13 9 15 21 17 14 16 16 10 5 355 345
172 173 180 182 194 213 243 254 225 198 173 169 162 130 148 157 151 153 154 174 143 18 63 104 123 115 83 64 51 10 360 353 359 5 7 9 6 6 10 4 2 6 3
189 185 189 198 215 213 216 175 174 169 167 161 154 161 167 175 176 166 166 192 199 123 127 129 135 99 18 78 21 340 340 343 350 358 6 358 1 7 9 9 7 5 13
200 204 212 202 189 172 173 163 165 177 178 176 170 176 191 183 188 181 180 184 162 159 157 133 26 16 18 352 342 349 353 353 352 355 356 355 356 7 10 11 4 360 2
177 260 204 187 185 171 151 151 161 175 175 174 181 180 180 176 177 179 182 178 187 180 184 205 269 11 357 350 6 9 8 15 4 353 344 353 5 3 5 15 11 12 26
223 269 186 173 175 178 196 206 183 175 181 179 183 187 196 201 196 192 195 197 192 195 190 211 8 11 360 4 12 18 31 29 20 13 8 11 22 9 18 25 19 27 10
222 247 208 197 189 190 190 202 201 194 190 191 193 200 213 213 200 198 198 196 199 198 202 221 239 325 360 4 16 30 42 41 41 54 55 47 31 30 24 25 29 43 38